RYR33BD LEAL-LOWW

Flight info

Callsign RYR33BD
Flight time 2h 20m
Altitude 38000
Route MITOS N851 ISTER DCT NIVDA DCT OMEDA DCT RAPUR DCT TORTU DCT ERTEV/N0439F390 DCT ARALD DCT ABTAN
Aircraft B738/M-SDE3FGILRWY/SB1

Departure

Time 2026-04-20 12:06
Airport Alicante-Elche Miguel Hernández Airport (LEAL)

Arrival

Time 2026-04-20 14:26
Airport Vienna International Airport (LOWW)
Time Latitude Longitude Altitude Speed Heading
2026-04-20 11:37 38.28516 -0.55234 90 ft 0 kts 10°
2026-04-20 11:55 38.28515 -0.55234 87 ft 2 kts 10°
2026-04-20 11:55 38.28490 -0.55239 90 ft 4 kts
2026-04-20 11:55 38.28464 -0.55238 90 ft 4 kts 345°
2026-04-20 11:55 38.28444 -0.55224 88 ft 3 kts 287°
2026-04-20 11:56 38.28443 -0.55219 87 ft 0 kts 280°
2026-04-20 12:00 38.28444 -0.55226 87 ft 2 kts 280°
2026-04-20 12:00 38.28450 -0.55269 88 ft 8 kts 281°
2026-04-20 12:00 38.28460 -0.55340 92 ft 8 kts 280°
2026-04-20 12:00 38.28470 -0.55411 94 ft 8 kts 280°
2026-04-20 12:01 38.28480 -0.55479 92 ft 8 kts 279°
2026-04-20 12:01 38.28489 -0.55549 96 ft 8 kts 278°
2026-04-20 12:01 38.28455 -0.55598 95 ft 8 kts 200°
2026-04-20 12:01 38.28402 -0.55613 97 ft 8 kts 191°
2026-04-20 12:02 38.28377 -0.55661 100 ft 8 kts 273°
2026-04-20 12:02 38.28383 -0.55728 101 ft 8 kts 279°
2026-04-20 12:02 38.28396 -0.55825 103 ft 14 kts 280°
2026-04-20 12:02 38.28415 -0.55965 105 ft 18 kts 279°
2026-04-20 12:03 38.28440 -0.56140 107 ft 22 kts 280°
2026-04-20 12:03 38.28467 -0.56336 111 ft 22 kts 280°
2026-04-20 12:03 38.28494 -0.56529 118 ft 22 kts 280°
2026-04-20 12:03 38.28520 -0.56716 122 ft 21 kts 280°
2026-04-20 12:04 38.28546 -0.56899 129 ft 20 kts 281°
2026-04-20 12:04 38.28572 -0.57075 138 ft 20 kts 279°
2026-04-20 12:04 38.28595 -0.57245 146 ft 19 kts 279°
2026-04-20 12:04 38.28610 -0.57371 150 ft 11 kts 274°
2026-04-20 12:05 38.28566 -0.57425 153 ft 9 kts 195°
2026-04-20 12:05 38.28504 -0.57439 154 ft 9 kts 189°
2026-04-20 12:05 38.28448 -0.57438 153 ft 7 kts 143°
2026-04-20 12:05 38.28432 -0.57358 150 ft 15 kts 100°
2026-04-20 12:06 38.28387 -0.57034 135 ft 71 kts 100°
2026-04-20 12:06 38.28258 -0.56116 110 ft 136 kts 100°
2026-04-20 12:06 38.28069 -0.54748 195 ft 174 kts 103°
2026-04-20 12:06 38.27829 -0.53256 899 ft 173 kts 102°
2026-04-20 12:07 38.27584 -0.51725 1590 ft 179 kts 102°
2026-04-20 12:07 38.27337 -0.50128 2207 ft 192 kts 97°
2026-04-20 12:07 38.27601 -0.48420 2723 ft 207 kts 61°
2026-04-20 12:07 38.28400 -0.46865 3305 ft 213 kts 56°
2026-04-20 12:08 38.29233 -0.45259 3784 ft 223 kts 57°
2026-04-20 12:08 38.30097 -0.43570 4279 ft 232 kts 58°
2026-04-20 12:08 38.31001 -0.41803 4773 ft 248 kts 57°
2026-04-20 12:08 38.31992 -0.39907 5219 ft 265 kts 57°
2026-04-20 12:09 38.33017 -0.37920 5922 ft 271 kts 60°
2026-04-20 12:09 38.33755 -0.35701 6718 ft 272 kts 72°
2026-04-20 12:09 38.34356 -0.33431 7568 ft 272 kts 69°
2026-04-20 12:09 38.35063 -0.31153 8213 ft 281 kts 68°
2026-04-20 12:10 38.35810 -0.28812 8869 ft 289 kts 68°
2026-04-20 12:10 38.36573 -0.26418 9567 ft 294 kts 67°
2026-04-20 12:10 38.37371 -0.23997 10269 ft 299 kts 67°
2026-04-20 12:10 38.38189 -0.21510 10776 ft 311 kts 67°
2026-04-20 12:11 38.39051 -0.18924 11253 ft 323 kts 67°
2026-04-20 12:11 38.39950 -0.16221 11606 ft 340 kts 66°
2026-04-20 12:11 38.40881 -0.13415 12226 ft 345 kts 66°
2026-04-20 12:11 38.41830 -0.10582 12946 ft 349 kts 66°
2026-04-20 12:12 38.42792 -0.07715 13655 ft 355 kts 66°
2026-04-20 12:12 38.43764 -0.04777 14233 ft 363 kts 66°
2026-04-20 12:12 38.44744 -0.01800 14942 ft 366 kts 66°
2026-04-20 12:12 38.45737 0.01208 15652 ft 370 kts 67°
2026-04-20 12:13 38.46720 0.04257 16361 ft 373 kts 67°
2026-04-20 12:13 38.47710 0.07335 17050 ft 377 kts 67°
2026-04-20 12:13 38.48714 0.10451 17719 ft 382 kts 68°
2026-04-20 12:13 38.49715 0.13563 18378 ft 386 kts 68°
2026-04-20 12:14 38.50741 0.16753 18973 ft 390 kts 67°
2026-04-20 12:14 38.51773 0.19972 19588 ft 393 kts 67°
2026-04-20 12:14 38.52811 0.23213 20194 ft 396 kts 67°
2026-04-20 12:14 38.53860 0.26491 20784 ft 400 kts 67°
2026-04-20 12:15 38.54914 0.29793 21370 ft 404 kts 66°
2026-04-20 12:15 38.55978 0.33128 21934 ft 407 kts 66°
2026-04-20 12:15 38.57051 0.36495 22504 ft 411 kts 66°
2026-04-20 12:15 38.58130 0.39885 23051 ft 415 kts 66°
2026-04-20 12:16 38.59222 0.43320 23572 ft 419 kts 66°
2026-04-20 12:16 38.60320 0.46779 24027 ft 422 kts 66°
2026-04-20 12:16 38.61428 0.50269 24522 ft 424 kts 66°
2026-04-20 12:16 38.62543 0.53773 24997 ft 426 kts 66°
2026-04-20 12:17 38.63663 0.57293 25446 ft 429 kts 66°
2026-04-20 12:17 38.64790 0.60838 25888 ft 432 kts 66°
2026-04-20 12:17 38.65922 0.64405 26334 ft 434 kts 66°
2026-04-20 12:17 38.67062 0.68004 26746 ft 438 kts 66°
2026-04-20 12:18 38.68197 0.71610 27163 ft 440 kts 66°
2026-04-20 12:18 38.69344 0.75269 27597 ft 442 kts 66°
2026-04-20 12:18 38.70491 0.78940 27999 ft 445 kts 66°
2026-04-20 12:18 38.71644 0.82636 28373 ft 449 kts 66°
2026-04-20 12:19 38.72803 0.86354 28767 ft 451 kts 67°
2026-04-20 12:19 38.73968 0.90097 29166 ft 453 kts 67°
2026-04-20 12:19 38.75137 0.93855 29550 ft 456 kts 67°
2026-04-20 12:19 38.76311 0.97635 29915 ft 458 kts 67°
2026-04-20 12:20 38.77492 1.01441 30234 ft 461 kts 67°
2026-04-20 12:20 38.78677 1.05266 30523 ft 463 kts 67°
2026-04-20 12:20 38.79868 1.09113 30808 ft 465 kts 67°
2026-04-20 12:20 38.81060 1.12973 31100 ft 467 kts 67°
2026-04-20 12:21 38.82259 1.16856 31373 ft 470 kts 67°
2026-04-20 12:21 38.83462 1.20763 31623 ft 472 kts 67°
2026-04-20 12:21 38.84669 1.24687 31944 ft 473 kts 67°
2026-04-20 12:21 38.85872 1.28604 32361 ft 471 kts 67°
2026-04-20 12:22 38.87068 1.32504 32796 ft 469 kts 67°
2026-04-20 12:22 38.88259 1.36392 33178 ft 468 kts 67°
2026-04-20 12:22 38.89451 1.40284 33519 ft 468 kts 67°
2026-04-20 12:22 38.90640 1.44175 33859 ft 468 kts 67°
2026-04-20 12:23 38.91825 1.48067 34198 ft 467 kts 67°
2026-04-20 12:23 38.92989 1.51956 34495 ft 467 kts 68°
2026-04-20 12:23 38.94140 1.55850 34744 ft 468 kts 68°
2026-04-20 12:23 38.95291 1.59770 34979 ft 469 kts 68°
2026-04-20 12:24 38.96441 1.63690 35254 ft 468 kts 68°
2026-04-20 12:24 38.97588 1.67602 35533 ft 468 kts 68°
2026-04-20 12:24 38.98735 1.71517 35805 ft 468 kts 68°
2026-04-20 12:24 38.99883 1.75430 36050 ft 468 kts 68°
2026-04-20 12:25 39.01030 1.79348 36305 ft 468 kts 68°
2026-04-20 12:25 39.02175 1.83262 36570 ft 468 kts 68°
2026-04-20 12:25 39.03319 1.87176 36822 ft 468 kts 68°
2026-04-20 12:25 39.04461 1.91089 37056 ft 468 kts 68°
2026-04-20 12:26 39.05604 1.95013 37277 ft 468 kts 68°
2026-04-20 12:26 39.06744 1.98931 37521 ft 468 kts 68°
2026-04-20 12:26 39.07883 2.02853 37755 ft 468 kts 68°
2026-04-20 12:26 39.09020 2.06775 37981 ft 468 kts 68°
2026-04-20 12:27 39.11304 2.14668 38039 ft 472 kts 68°
2026-04-20 12:27 39.13588 2.22585 38017 ft 469 kts 68°
2026-04-20 12:28 39.15842 2.30424 38027 ft 465 kts 68°
2026-04-20 12:28 39.17701 2.36904 38030 ft 463 kts 69°
2026-04-20 12:29 39.20287 2.45945 38030 ft 462 kts 69°
2026-04-20 12:29 39.22142 2.52451 38031 ft 462 kts 69°
2026-04-20 12:30 39.24355 2.60230 38031 ft 462 kts 69°
2026-04-20 12:30 39.26580 2.68028 38034 ft 464 kts 69°
2026-04-20 12:31 39.28807 2.75851 38036 ft 465 kts 69°
2026-04-20 12:31 39.31017 2.83720 38032 ft 467 kts 69°
2026-04-20 12:32 39.33227 2.91620 38042 ft 469 kts 69°
2026-04-20 12:32 39.35444 2.99556 38037 ft 470 kts 69°
2026-04-20 12:33 39.37661 3.07514 38038 ft 471 kts 69°
2026-04-20 12:33 39.39876 3.15491 38036 ft 472 kts 69°
2026-04-20 12:34 39.42088 3.23475 38034 ft 472 kts 69°
2026-04-20 12:34 39.45001 3.31018 38050 ft 468 kts 57°
2026-04-20 12:35 39.48395 3.38206 38039 ft 468 kts 57°
2026-04-20 12:35 39.51772 3.45394 38031 ft 467 kts 57°
2026-04-20 12:36 39.55105 3.52608 38039 ft 466 kts 57°
2026-04-20 12:36 39.58415 3.59833 38037 ft 466 kts 57°
2026-04-20 12:37 39.61711 3.67051 38037 ft 465 kts 57°
2026-04-20 12:37 39.65001 3.74267 38037 ft 464 kts 58°
2026-04-20 12:38 39.68261 3.81429 38044 ft 464 kts 58°
2026-04-20 12:38 39.71539 3.88650 38033 ft 464 kts 58°
2026-04-20 12:39 39.76450 3.99498 38031 ft 465 kts 58°
2026-04-20 12:40 39.79721 4.06746 38024 ft 465 kts 58°
2026-04-20 12:40 39.82990 4.14006 38023 ft 465 kts 58°
2026-04-20 12:41 39.86259 4.21280 38022 ft 466 kts 58°
2026-04-20 12:41 39.89528 4.28571 38025 ft 466 kts 58°
2026-04-20 12:42 39.92797 4.35875 38022 ft 467 kts 58°
2026-04-20 12:42 39.96063 4.43194 38038 ft 468 kts 58°
2026-04-20 12:43 39.99332 4.50537 38031 ft 468 kts 58°
2026-04-20 12:43 40.02597 4.57887 38039 ft 468 kts 58°
2026-04-20 12:44 40.05862 4.65248 38038 ft 468 kts 57°
2026-04-20 12:44 40.09700 4.72055 38047 ft 465 kts 47°
2026-04-20 12:45 40.13894 4.78479 38038 ft 465 kts 46°
2026-04-20 12:45 40.18080 4.84920 38042 ft 465 kts 47°
2026-04-20 12:46 40.22225 4.91406 38036 ft 465 kts 47°
2026-04-20 12:46 40.26351 4.97922 38044 ft 465 kts 47°
2026-04-20 12:47 40.30472 5.04454 38036 ft 465 kts 47°
2026-04-20 12:47 40.34585 5.10983 38038 ft 465 kts 47°
2026-04-20 12:48 40.38695 5.17520 38043 ft 465 kts 47°
2026-04-20 12:48 40.42803 5.24065 38034 ft 465 kts 47°
2026-04-20 12:49 40.46908 5.30620 38033 ft 464 kts 47°
2026-04-20 12:49 40.51007 5.37180 38034 ft 464 kts 47°
2026-04-20 12:50 40.55101 5.43745 38039 ft 464 kts 47°
2026-04-20 12:50 40.59187 5.50312 38035 ft 464 kts 47°
2026-04-20 12:51 40.63270 5.56887 38032 ft 464 kts 47°
2026-04-20 12:51 40.67349 5.63470 38032 ft 464 kts 47°
2026-04-20 12:52 40.71426 5.70063 38043 ft 464 kts 47°
2026-04-20 12:52 40.75496 5.76662 38034 ft 464 kts 47°
2026-04-20 12:53 40.79563 5.83268 38032 ft 464 kts 47°
2026-04-20 12:53 40.83605 5.89848 38035 ft 464 kts 47°
2026-04-20 12:54 40.87667 5.96475 38045 ft 464 kts 47°
2026-04-20 12:54 40.91728 6.03114 38025 ft 464 kts 47°
2026-04-20 12:55 40.95809 6.09801 38030 ft 464 kts 47°
2026-04-20 12:55 40.99862 6.16455 38033 ft 464 kts 47°
2026-04-20 12:56 41.03914 6.23124 38023 ft 465 kts 47°
2026-04-20 12:56 41.07961 6.29798 38025 ft 464 kts 47°
2026-04-20 12:57 41.11975 6.36432 38022 ft 464 kts 47°
2026-04-20 12:57 41.16007 6.43112 38022 ft 464 kts 47°
2026-04-20 12:58 41.20039 6.49807 38031 ft 464 kts 47°
2026-04-20 12:58 41.24069 6.56511 38021 ft 464 kts 47°
2026-04-20 12:59 41.28150 6.63156 38022 ft 464 kts 46°
2026-04-20 12:59 41.32276 6.69748 38021 ft 463 kts 46°
2026-04-20 13:00 41.36391 6.76343 38043 ft 463 kts 46°
2026-04-20 13:00 41.40498 6.82964 38022 ft 464 kts 46°
2026-04-20 13:01 41.44601 6.89605 38021 ft 464 kts 46°
2026-04-20 13:01 41.48695 6.96249 38012 ft 464 kts 46°
2026-04-20 13:02 41.52790 7.02906 38014 ft 464 kts 46°
2026-04-20 13:02 41.56877 7.09566 38032 ft 464 kts 46°
2026-04-20 13:03 41.60965 7.16240 38014 ft 464 kts 46°
2026-04-20 13:03 41.65045 7.22917 38010 ft 464 kts 46°
2026-04-20 13:04 41.69122 7.29605 38013 ft 463 kts 46°
2026-04-20 13:04 41.73191 7.36293 38010 ft 463 kts 46°
2026-04-20 13:05 41.77254 7.42986 38019 ft 463 kts 46°
2026-04-20 13:05 41.81315 7.49692 38007 ft 463 kts 46°
2026-04-20 13:06 41.85371 7.56404 38008 ft 463 kts 46°
2026-04-20 13:06 41.89421 7.63120 38006 ft 463 kts 46°
2026-04-20 13:07 41.93466 7.69844 38001 ft 463 kts 46°
2026-04-20 13:07 41.97509 7.76578 38006 ft 463 kts 46°
2026-04-20 13:08 42.01551 7.83329 38006 ft 463 kts 46°
2026-04-20 13:08 42.05583 7.90075 38009 ft 463 kts 46°
2026-04-20 13:09 42.09612 7.96833 38007 ft 463 kts 46°
2026-04-20 13:09 42.13633 8.03592 38018 ft 462 kts 46°
2026-04-20 13:10 42.17627 8.10323 38008 ft 463 kts 46°
2026-04-20 13:10 42.21641 8.17101 38001 ft 463 kts 46°
2026-04-20 13:11 42.25649 8.23886 37989 ft 462 kts 46°
2026-04-20 13:11 42.29654 8.30677 37987 ft 462 kts 46°
2026-04-20 13:12 42.34272 8.36481 37992 ft 448 kts 27°
2026-04-20 13:12 42.39762 8.40176 37987 ft 438 kts 16°
2026-04-20 13:13 42.45425 8.43224 37971 ft 438 kts 15°
2026-04-20 13:13 42.51083 8.46302 37967 ft 439 kts 16°
2026-04-20 13:14 42.56739 8.49436 37965 ft 439 kts 16°
2026-04-20 13:14 42.62394 8.52593 37963 ft 440 kts 16°
2026-04-20 13:15 42.68056 8.55762 37961 ft 440 kts 16°
2026-04-20 13:15 42.72761 8.58398 37968 ft 441 kts 16°
2026-04-20 13:16 42.78433 8.61581 37964 ft 441 kts 16°
2026-04-20 13:16 42.84105 8.64771 37957 ft 441 kts 16°
2026-04-20 13:17 42.89777 8.67966 37966 ft 441 kts 16°
2026-04-20 13:17 42.95447 8.71161 37974 ft 441 kts 16°
2026-04-20 13:18 43.01111 8.74357 37973 ft 440 kts 16°
2026-04-20 13:18 43.06768 8.77557 37970 ft 440 kts 16°
2026-04-20 13:19 43.12415 8.80758 37985 ft 439 kts 16°
2026-04-20 13:19 43.18049 8.83957 37970 ft 438 kts 16°
2026-04-20 13:20 43.23671 8.87157 37972 ft 437 kts 16°
2026-04-20 13:20 43.29278 8.90355 37997 ft 436 kts 16°
2026-04-20 13:21 43.34880 8.93554 37976 ft 436 kts 16°
2026-04-20 13:21 43.40604 8.95786 37974 ft 421 kts 360°
2026-04-20 13:22 43.46381 8.95899 37968 ft 414 kts 353°
2026-04-20 13:22 43.52148 8.95806 37969 ft 415 kts 353°
2026-04-20 13:23 43.57928 8.95795 37960 ft 416 kts 353°
2026-04-20 13:23 43.63697 8.97027 37983 ft 434 kts 17°
2026-04-20 13:23 43.66370 8.99053 37948 ft 447 kts 31°
2026-04-20 13:24 43.68727 9.01906 38011 ft 452 kts 37°
2026-04-20 13:24 43.73271 9.07976 37975 ft 455 kts 38°
2026-04-20 13:25 43.77812 9.14094 37968 ft 456 kts 38°
2026-04-20 13:25 43.82390 9.20186 37966 ft 457 kts 38°
2026-04-20 13:26 43.86987 9.26264 37979 ft 457 kts 37°
2026-04-20 13:26 43.91564 9.32315 37968 ft 458 kts 37°
2026-04-20 13:27 43.96199 9.38457 37969 ft 458 kts 37°
2026-04-20 13:27 44.00767 9.44527 37968 ft 457 kts 38°
2026-04-20 13:28 44.05395 9.50690 37972 ft 458 kts 37°
2026-04-20 13:28 44.09983 9.56814 37989 ft 457 kts 37°
2026-04-20 13:29 44.14535 9.62904 37988 ft 457 kts 38°
2026-04-20 13:29 44.19103 9.69028 37994 ft 456 kts 37°
2026-04-20 13:30 44.23662 9.75156 37976 ft 455 kts 38°
2026-04-20 13:30 44.28222 9.81298 37994 ft 455 kts 38°
2026-04-20 13:31 44.32772 9.87441 37976 ft 455 kts 38°
2026-04-20 13:31 44.37319 9.93593 37967 ft 455 kts 38°
2026-04-20 13:32 44.41873 9.99769 37992 ft 457 kts 38°
2026-04-20 13:32 44.46440 10.05975 37992 ft 458 kts 38°
2026-04-20 13:33 44.51012 10.12204 37971 ft 458 kts 38°
2026-04-20 13:33 44.55568 10.18428 38004 ft 457 kts 38°
2026-04-20 13:34 44.60125 10.24664 37988 ft 458 kts 38°
2026-04-20 13:34 44.64681 10.30913 37967 ft 459 kts 38°
2026-04-20 13:35 44.69244 10.37187 38009 ft 459 kts 38°
2026-04-20 13:35 44.73802 10.43470 38021 ft 459 kts 38°
2026-04-20 13:36 44.78366 10.49776 38013 ft 459 kts 38°
2026-04-20 13:36 44.82921 10.56084 38003 ft 459 kts 38°
2026-04-20 13:37 44.87470 10.62398 38006 ft 459 kts 38°
2026-04-20 13:37 44.92016 10.68723 38001 ft 459 kts 38°
2026-04-20 13:38 44.96560 10.75059 37999 ft 459 kts 38°
2026-04-20 13:38 45.01089 10.81391 37963 ft 458 kts 38°
2026-04-20 13:39 45.05616 10.87735 37952 ft 458 kts 38°
2026-04-20 13:39 45.10139 10.94086 37941 ft 458 kts 39°
2026-04-20 13:40 45.14620 11.00395 37938 ft 457 kts 39°
2026-04-20 13:40 45.19152 11.06789 37940 ft 456 kts 39°
2026-04-20 13:41 45.23639 11.13135 37955 ft 456 kts 39°
2026-04-20 13:41 45.28134 11.19508 37954 ft 456 kts 39°
2026-04-20 13:42 45.32618 11.25880 37966 ft 456 kts 39°
2026-04-20 13:42 45.39333 11.35451 37960 ft 456 kts 39°
2026-04-20 13:43 45.43798 11.41857 37971 ft 456 kts 39°
2026-04-20 13:43 45.48266 11.48273 37949 ft 456 kts 39°
2026-04-20 13:44 45.52746 11.54680 37950 ft 457 kts 39°
2026-04-20 13:44 45.57223 11.61113 37946 ft 457 kts 39°
2026-04-20 13:45 45.61697 11.67571 37964 ft 458 kts 39°
2026-04-20 13:45 45.66172 11.74048 37950 ft 458 kts 39°
2026-04-20 13:46 45.70616 11.80495 37960 ft 458 kts 39°
2026-04-20 13:46 45.75110 11.87030 37982 ft 458 kts 39°
2026-04-20 13:47 45.79580 11.93544 37961 ft 458 kts 39°
2026-04-20 13:47 45.84042 12.00055 37950 ft 458 kts 39°
2026-04-20 13:48 45.88497 12.06570 37940 ft 457 kts 39°
2026-04-20 13:48 45.92936 12.13086 37972 ft 456 kts 39°
2026-04-20 13:49 45.97366 12.19607 37959 ft 455 kts 39°
2026-04-20 13:49 46.01757 12.26086 37951 ft 455 kts 39°
2026-04-20 13:50 46.06154 12.32585 37986 ft 450 kts 39°
2026-04-20 13:50 46.10526 12.39068 37965 ft 452 kts 39°
2026-04-20 13:51 46.14902 12.45569 37967 ft 452 kts 39°
2026-04-20 13:51 46.19286 12.52101 37953 ft 452 kts 39°
2026-04-20 13:52 46.23647 12.58599 37920 ft 448 kts 39°
2026-04-20 13:52 46.27937 12.65048 37995 ft 446 kts 39°
2026-04-20 13:53 46.32290 12.71575 37961 ft 453 kts 39°
2026-04-20 13:53 46.36689 12.78183 37953 ft 458 kts 39°
2026-04-20 13:54 46.41105 12.84842 37925 ft 456 kts 40°
2026-04-20 13:54 46.45446 12.91418 37963 ft 448 kts 40°
2026-04-20 13:55 46.49776 12.97980 37908 ft 452 kts 40°
2026-04-20 13:55 46.54116 13.04569 37931 ft 451 kts 40°
2026-04-20 13:56 46.58439 13.11153 37949 ft 449 kts 40°
2026-04-20 13:56 46.62750 13.17737 37940 ft 451 kts 40°
2026-04-20 13:57 46.67065 13.24362 37950 ft 452 kts 41°
2026-04-20 13:57 46.70597 13.32052 37962 ft 463 kts 57°
2026-04-20 13:58 46.73514 13.40430 37957 ft 464 kts 58°
2026-04-20 13:58 46.76418 13.48843 37952 ft 464 kts 57°
2026-04-20 13:59 46.79354 13.57225 37972 ft 465 kts 57°
2026-04-20 13:59 46.82315 13.65626 37948 ft 466 kts 57°
2026-04-20 14:00 46.84771 13.72608 37969 ft 466 kts 57°
2026-04-20 14:00 46.87732 13.81050 37963 ft 467 kts 57°
2026-04-20 14:01 46.90688 13.89509 37968 ft 464 kts 57°
2026-04-20 14:01 46.92125 13.93650 37946 ft 450 kts 57°
2026-04-20 14:01 46.93518 13.97674 37951 ft 437 kts 57°
2026-04-20 14:02 46.96268 14.05587 38002 ft 442 kts 57°
2026-04-20 14:02 46.99093 14.13710 37994 ft 453 kts 57°
2026-04-20 14:03 47.01973 14.22047 38003 ft 464 kts 57°
2026-04-20 14:03 47.04900 14.30567 37994 ft 472 kts 57°
2026-04-20 14:04 47.07858 14.39213 37995 ft 477 kts 57°
2026-04-20 14:04 47.10829 14.47910 37899 ft 473 kts 58°
2026-04-20 14:05 47.12084 14.52357 37458 ft 475 kts 70°
2026-04-20 14:05 47.12915 14.57070 36848 ft 479 kts 72°
2026-04-20 14:05 47.13636 14.61862 36126 ft 484 kts 72°
2026-04-20 14:05 47.14369 14.66708 35394 ft 488 kts 71°
2026-04-20 14:06 47.15158 14.71582 34683 ft 492 kts 70°
2026-04-20 14:06 47.15988 14.76479 34010 ft 496 kts 70°
2026-04-20 14:06 47.16836 14.81409 33233 ft 499 kts 69°
2026-04-20 14:06 47.17692 14.86390 32224 ft 508 kts 69°
2026-04-20 14:07 47.18559 14.91458 31397 ft 513 kts 70°
2026-04-20 14:07 47.19421 14.96550 30829 ft 511 kts 70°
2026-04-20 14:07 47.20270 15.01604 30417 ft 506 kts 70°
2026-04-20 14:07 47.21106 15.06614 29932 ft 503 kts 70°
2026-04-20 14:08 47.21939 15.11598 29294 ft 500 kts 69°
2026-04-20 14:08 47.22766 15.16543 28754 ft 497 kts 70°
2026-04-20 14:08 47.23584 15.21459 28184 ft 493 kts 70°
2026-04-20 14:08 47.24394 15.26329 27718 ft 487 kts 70°
2026-04-20 14:09 47.25190 15.31140 27280 ft 481 kts 70°
2026-04-20 14:09 47.25976 15.35908 26838 ft 476 kts 71°
2026-04-20 14:09 47.26752 15.40626 26384 ft 472 kts 71°
2026-04-20 14:09 47.27520 15.45302 25932 ft 468 kts 71°
2026-04-20 14:10 47.28280 15.49941 25482 ft 464 kts 72°
2026-04-20 14:10 47.29032 15.54543 25080 ft 460 kts 72°
2026-04-20 14:10 47.29774 15.59093 24673 ft 455 kts 72°
2026-04-20 14:10 47.30507 15.63601 24262 ft 450 kts 73°
2026-04-20 14:11 47.31230 15.68065 23850 ft 446 kts 73°
2026-04-20 14:11 47.31949 15.72516 23121 ft 449 kts 73°
2026-04-20 14:11 47.32676 15.77010 22356 ft 451 kts 73°
2026-04-20 14:11 47.33395 15.81488 21799 ft 447 kts 73°
2026-04-20 14:12 47.34108 15.85942 21264 ft 445 kts 73°
2026-04-20 14:12 47.34815 15.90363 20714 ft 442 kts 74°
2026-04-20 14:12 47.35514 15.94749 20234 ft 436 kts 74°
2026-04-20 14:12 47.36407 15.98971 19642 ft 428 kts 59°
2026-04-20 14:13 47.38121 16.02467 19049 ft 416 kts 39°
2026-04-20 14:13 47.40338 16.05072 18576 ft 402 kts 24°
2026-04-20 14:13 47.42836 16.06738 18082 ft 389 kts 12°
2026-04-20 14:13 47.45380 16.07993 17532 ft 384 kts 11°
2026-04-20 14:14 47.47917 16.09190 17008 ft 380 kts 11°
2026-04-20 14:14 47.50417 16.10373 16510 ft 375 kts 11°
2026-04-20 14:14 47.52890 16.11561 16051 ft 372 kts 12°
2026-04-20 14:14 47.55335 16.12754 15546 ft 369 kts 12°
2026-04-20 14:15 47.57767 16.13953 15041 ft 367 kts 12°
2026-04-20 14:15 47.60143 16.15133 14610 ft 364 kts 13°
2026-04-20 14:15 47.62559 16.16335 14174 ft 360 kts 13°
2026-04-20 14:15 47.64921 16.17515 13710 ft 357 kts 13°
2026-04-20 14:16 47.67232 16.18672 13178 ft 355 kts 13°
2026-04-20 14:16 47.69565 16.19839 12621 ft 353 kts 13°
2026-04-20 14:16 47.71884 16.20999 12116 ft 350 kts 14°
2026-04-20 14:16 47.74183 16.22148 11597 ft 347 kts 14°
2026-04-20 14:17 47.76433 16.23452 11087 ft 351 kts 25°
2026-04-20 14:17 47.78311 16.25782 10669 ft 355 kts 49°
2026-04-20 14:17 47.79473 16.28974 10454 ft 350 kts 70°
2026-04-20 14:17 47.80105 16.32419 10271 ft 341 kts 75°
2026-04-20 14:18 47.80661 16.35805 10107 ft 331 kts 75°
2026-04-20 14:18 47.81184 16.39052 9960 ft 314 kts 76°
2026-04-20 14:18 47.81320 16.42245 9785 ft 310 kts 94°
2026-04-20 14:18 47.81128 16.45415 9530 ft 307 kts 95°
2026-04-20 14:19 47.80931 16.48571 9242 ft 306 kts 95°
2026-04-20 14:19 47.80731 16.51709 8976 ft 303 kts 95°
2026-04-20 14:19 47.80527 16.54827 8639 ft 304 kts 95°
2026-04-20 14:19 47.80313 16.57954 8357 ft 302 kts 95°
2026-04-20 14:20 47.80095 16.61041 8138 ft 299 kts 95°
2026-04-20 14:20 47.79915 16.64115 7790 ft 299 kts 87°
2026-04-20 14:20 47.80383 16.67067 7497 ft 291 kts 58°
2026-04-20 14:20 47.81637 16.69321 7259 ft 279 kts 31°
2026-04-20 14:21 47.83377 16.70331 6959 ft 265 kts 358°
2026-04-20 14:21 47.85119 16.69794 6672 ft 252 kts 335°
2026-04-20 14:21 47.86742 16.68844 6212 ft 252 kts 336°
2026-04-20 14:21 47.88376 16.67946 5766 ft 246 kts 338°
2026-04-20 14:22 47.89966 16.67170 5375 ft 235 kts 340°
2026-04-20 14:22 47.91507 16.66496 4980 ft 227 kts 341°
2026-04-20 14:22 47.93005 16.65860 4587 ft 220 kts 341°
2026-04-20 14:22 47.94450 16.65249 4175 ft 212 kts 340°
2026-04-20 14:23 47.95852 16.64655 3840 ft 206 kts 341°
2026-04-20 14:23 47.97226 16.64071 3461 ft 203 kts 341°
2026-04-20 14:23 47.98567 16.63502 3115 ft 198 kts 341°
2026-04-20 14:23 47.99870 16.62950 2705 ft 192 kts 341°
2026-04-20 14:24 48.01110 16.62424 2327 ft 181 kts 341°
2026-04-20 14:24 48.02292 16.61923 1991 ft 170 kts 341°
2026-04-20 14:24 48.03391 16.61457 1768 ft 158 kts 340°
2026-04-20 14:24 48.04417 16.61020 1568 ft 147 kts 341°
2026-04-20 14:25 48.05356 16.60623 1340 ft 136 kts 341°
2026-04-20 14:25 48.06253 16.60240 1167 ft 136 kts 341°
2026-04-20 14:25 48.07140 16.59853 962 ft 129 kts 343°
2026-04-20 14:25 48.08027 16.59476 787 ft 136 kts 344°
2026-04-20 14:26 48.08940 16.59100 637 ft 135 kts 343°
2026-04-20 14:26 48.09771 16.58751 614 ft 102 kts 344°
2026-04-20 14:26 48.10265 16.58542 619 ft 53 kts 344°
2026-04-20 14:26 48.10545 16.58425 613 ft 38 kts 344°
2026-04-20 14:27 48.10738 16.58267 608 ft 30 kts 318°
2026-04-20 14:27 48.10867 16.58071 614 ft 21 kts 314°
2026-04-20 14:27 48.10967 16.57967 620 ft 16 kts 343°
2026-04-20 14:27 48.11073 16.57918 618 ft 16 kts 332°
2026-04-20 14:28 48.11134 16.57789 612 ft 15 kts 296°
2026-04-20 14:28 48.11182 16.57644 611 ft 17 kts 294°
2026-04-20 14:28 48.11239 16.57467 612 ft 20 kts 296°
2026-04-20 14:28 48.11299 16.57281 610 ft 20 kts 296°
2026-04-20 14:29 48.11356 16.57103 608 ft 19 kts 296°
2026-04-20 14:29 48.11413 16.56929 610 ft 18 kts 295°
2026-04-20 14:29 48.11468 16.56761 608 ft 18 kts 296°
2026-04-20 14:29 48.11524 16.56587 613 ft 20 kts 295°
2026-04-20 14:30 48.11584 16.56401 613 ft 20 kts 296°
2026-04-20 14:30 48.11642 16.56220 612 ft 19 kts 298°
2026-04-20 14:30 48.11700 16.56046 608 ft 18 kts 297°
2026-04-20 14:30 48.11756 16.55878 614 ft 18 kts 296°
2026-04-20 14:31 48.11809 16.55715 620 ft 17 kts 296°
2026-04-20 14:31 48.11860 16.55558 608 ft 16 kts 296°
2026-04-20 14:31 48.11894 16.55453 613 ft 10 kts 318°
2026-04-20 14:31 48.11958 16.55469 614 ft 10 kts 24°
2026-04-20 14:32 48.12019 16.55513 612 ft 10 kts 26°
2026-04-20 14:32 48.12078 16.55555 614 ft 9 kts 25°
2026-04-20 14:32 48.12129 16.55592 612 ft 6 kts 26°
2026-04-20 14:32 48.12137 16.55636 608 ft 4 kts 104°
2026-04-20 14:33 48.12128 16.55669 616 ft 2 kts 116°
2026-04-20 14:33 48.12122 16.55685 617 ft 1 kts 116°
2026-04-20 14:33 48.12122 16.55687 617 ft 0 kts 116°